[[{"header":{"parameterUnit":"m.s-1","parameterCategory":1,"la1":30.2991,"la2":30.254,"lo1":-89.0895,"lo2":-89.0444,"dy":0.0017,"dx":0.0017,"nx":28,"ny":28,"refTime":"2025-02-07T09:00:00:Z","depth":0,"parameterNumber":2,"parameterNumberName":"U-component_of_WINDS"},"data":[0,0,0,0,0,0,0,0,0,0,0,0,0,0,0,0,0,0,0,0,0,0,0,0,0,0,0,0,0,0,0,0,0,0,0,0,0,0,0,0,0,0,0,0,0,0,0,0,0,0,0,0,0,0,0,0,0,0,-1.0952,-1.0951,0,-1.0885,-1.0884,-1.0883,-1.085,-1.085,-1.085,-1.085,-1.0778,-1.0776,-1.0775,0,0,0,0,0,0,0,0,0,0,0,0,0,-1.1047,-1.1045,-1.0952,-1.0951,-1.095,-1.0885,-1.0884,-1.0883,-1.085,-1.085,-1.085,-1.085,-1.0779,-1.0777,-1.0774,0,0,0,0,0,0,0,0,0,0,0,0,0,-1.0995,-1.1045,-1.0952,-1.0926,-1.0923,-1.0885,-1.0884,-1.0883,-1.085,-1.085,-1.085,-1.085,-1.078,-1.0777,-1.0774,-1.0757,0,0,-1.0765,-1.0764,0,0,0,0,0,0,0,0,-1.0998,-1.0992,-1.093,-1.0927,-1.0924,-1.0876,-1.0891,-1.0841,-1.085,-1.0877,-1.085,-1.085,-1.081,-1.0805,-1.0793,-1.0754,-1.075,-1.0765,-1.0763,-1.0762,-1.0761,0,0,0,0,0,0,0,-1.1002,-1.0994,-1.0925,-1.0929,-1.0926,-1.0916,-1.0909,-1.0882,-1.0845,-1.0875,-1.0872,-1.0865,-1.0809,-1.0795,-1.0791,-1.0749,-1.0765,-1.0763,-1.0761,-1.076,-1.0691,-1.0691,0,0,0,0,0,0,-1.101,-1.0998,-1.0927,-1.0923,-1.0962,-1.0914,-1.0906,-1.0891,-1.0845,-1.0838,-1.0865,-1.0864,-1.08,-1.0794,-1.0788,-1.0764,-1.0762,-1.076,-1.0758,-1.0691,-1.0691,-1.0691,0,0,0,0,0,0,-1.1012,-1.1004,-1.093,-1.096,-1.095,-1.0913,-1.0896,-1.089,-1.0876,-1.0838,-1.083,-1.0858,-1.08,-1.0792,-1.0765,-1.0761,-1.0758,-1.0756,-1.0691,-1.0691,-1.0691,-1.0716,0,0,0,0,0,0,-1.1015,-1.1005,-1.0999,-1.096,-1.0948,-1.0909,-1.0896,-1.0889,-1.0872,-1.087,-1.0829,-1.0823,-1.0799,-1.0769,-1.0762,-1.0757,-1.0754,-1.0691,-1.0691,-1.0691,-1.0715,-1.0716,-1.0718,0,0,0,0,0,-1.1019,-1.1009,-1.0999,-1.0991,-1.094,-1.0909,-1.0902,-1.0876,-1.0872,-1.0865,-1.084,-1.0824,-1.0763,-1.0767,-1.0758,-1.0752,-1.0692,-1.0691,-1.0691,-1.0715,-1.0716,-1.0718,0,0,0,0,0,0,-1.1048,-1.1003,-1.0992,-1.0969,-1.0943,-1.0903,-1.0894,-1.0879,-1.0853,-1.0852,-1.082,-1.0811,-1.0786,-1.0766,-1.0772,-1.0732,-1.0725,-1.0723,-1.0746,-1.0747,-1.0749,-1.0754,-1.0751,0,0,0,0,0,-1.1052,-1.1031,-1.0993,-1.0976,-1.0964,-1.0931,-1.0917,-1.0899,-1.087,-1.0859,-1.0832,-1.0804,-1.0778,-1.0762,-1.0736,-1.0712,-1.0702,-1.0704,-1.0705,-1.0706,-1.0705,-1.0689,-1.0689,-1.069,-1.069,-1.069,0,0,-1.1059,-1.1032,-1.1021,-1.0981,-1.0959,-1.0937,-1.0922,-1.09,-1.0883,-1.0855,-1.0828,-1.0807,-1.0773,-1.0748,-1.0735,-1.073,-1.0702,-1.0706,-1.0707,-1.0705,-1.0689,-1.0689,-1.0689,-1.069,-1.069,-1.069,0,0,-1.1061,-1.104,-1.1023,-1.1001,-1.0968,-1.0946,-1.0942,-1.0904,-1.0889,-1.0862,-1.084,-1.0819,-1.0775,-1.0752,-1.0734,-1.0727,-1.0711,-1.0719,-1.0726,-1.0711,-1.0711,-1.071,-1.0707,-1.0706,-1.0718,-1.0718,-1.0718,0,-1.1075,-1.1042,-1.1016,-1.0995,-1.0977,-1.0952,-1.0934,-1.0913,-1.0873,-1.0861,-1.0857,-1.0801,-1.0777,-1.0744,-1.0742,-1.0729,-1.0723,-1.0724,-1.0713,-1.0713,-1.0712,-1.0708,-1.0707,-1.0719,-1.0719,-1.0719,-1.0719,0,-1.106,-1.1037,-1.1027,-1.099,-1.0971,-1.0952,-1.0921,-1.0905,-1.0889,-1.0867,-1.0838,-1.0808,-1.0775,-1.0766,-1.075,-1.0731,-1.0729,-1.072,-1.0712,-1.0713,-1.0709,-1.0707,-1.0721,-1.072,-1.072,-1.072,0,0,-1.1079,-1.1026,-1.1023,-1.1005,-1.0966,-1.0948,-1.0927,-1.0895,-1.0881,-1.0854,-1.0835,-1.0798,-1.0789,-1.0769,-1.0749,-1.0737,-1.0731,-1.0728,-1.0727,-1.0729,-1.0707,-1.0714,-1.0713,-1.072,-1.072,-1.072,-1.0709,0,-1.1075,-1.1037,-1.1012,-1.0983,-1.0961,-1.0936,-1.0917,-1.089,-1.0869,-1.0847,-1.0823,-1.0797,-1.0787,-1.0775,-1.0761,-1.0735,-1.0726,-1.0735,-1.07,-1.07,-1.0709,-1.0711,-1.0718,-1.071,-1.0708,-1.0707,-1.0707,0,-1.1066,-1.104,-1.1009,-1.0971,-1.0961,-1.0945,-1.0913,-1.0893,-1.0861,-1.0846,-1.0824,-1.0804,-1.0779,-1.0774,-1.0738,-1.0745,-1.0729,-1.0714,-1.0713,-1.0708,-1.0703,-1.0705,-1.0707,-1.0705,-1.0704,-1.0705,-1.0705,0,-1.1081,-1.1039,-1.1014,-1.1,-1.0956,-1.0945,-1.0926,-1.0894,-1.0877,-1.0849,-1.0836,-1.0806,-1.0789,-1.0765,-1.0737,-1.0736,-1.0703,-1.0696,-1.0689,-1.069,-1.0683,-1.0684,-1.0681,-1.0674,-1.0674,-1.0674,-1.0674,0,-1.1079,-1.1061,-1.1021,-1.1006,-1.0984,-1.0955,-1.0934,-1.0912,-1.0885,-1.0864,-1.084,-1.0821,-1.0785,-1.0761,-1.0739,-1.0712,-1.0705,-1.0691,-1.0685,-1.0693,-1.0694,-1.0682,-1.0681,-1.0674,-1.0674,-1.0674,-1.0674,0,-1.1093,-1.1066,-1.1037,-1.0998,-1.0987,-1.0973,-1.0938,-1.0922,-1.09,-1.0874,-1.0866,-1.083,-1.08,-1.077,-1.073,-1.0715,-1.0688,-1.0681,-1.0699,-1.0696,-1.069,-1.0691,-1.0679,-1.0675,-1.0672,-1.0672,-1.0672,0,-1.1094,-1.1079,-1.1038,-1.1023,-1.1004,-1.098,-1.0962,-1.0933,-1.0914,-1.0877,-1.0865,-1.0834,-1.0807,-1.0761,-1.073,-1.0699,-1.069,-1.0688,-1.0685,-1.0693,-1.0689,-1.069,-1.0688,-1.0689,-1.0689,-1.0689,-1.069,0,-1.1096,-1.1083,-1.1059,-1.1029,-1.1008,-1.0983,-1.0957,-1.0945,-1.091,-1.0891,-1.0861,-1.084,-1.0799,-1.0768,-1.0733,-1.0712,-1.0694,-1.0691,-1.0687,-1.0695,-1.0706,-1.0698,-1.0701,-1.0691,-1.0691,-1.0691,-1.0691,-1.0691,-1.1103,-1.1088,-1.1057,-1.103,-1.1007,-1.0983,-1.0966,-1.0941,-1.0916,-1.0881,-1.0864,-1.0834,-1.0801,-1.0753,-1.0732,-1.0706,-1.0701,-1.0697,-1.0695,-1.0695,-1.0696,-1.071,-1.07,-1.07,-1.07,-1.07,-1.07,0,-1.1104,-1.1082,-1.1058,-1.1022,-1.1,-1.0987,-1.0957,-1.0939,-1.0913,-1.0885,-1.0859,-1.0824,-1.0793,-1.076,-1.0727,-1.0713,-1.0704,-1.0706,-1.0706,-1.0701,-1.0703,-1.0708,-1.0713,-1.0713,-1.0713,-1.0713,-1.0713,-1.0713,-1.1101,-1.1076,-1.1059,-1.1021,-1.0999,-1.097,-1.0954,-1.0931,-1.0908,-1.087,-1.0845,-1.0824,-1.0793,-1.0758,-1.0729,-1.072,-1.0708,-1.0712,-1.07,-1.0702,-1.0701,-1.07,-1.0705,-1.071,-1.071,-1.07,-1.07,-1.07]},{"header":{"parameterUnit":"m.s-1","parameterCategory":1,"la1":30.2991,"la2":30.254,"lo1":-89.0895,"lo2":-89.0444,"dy":0.0017,"dx":0.0017,"nx":28,"ny":28,"refTime":"2025-02-07T09:00:00:Z","depth":0,"parameterNumber":3,"parameterNumberName":"V-component_of_WINDS"},"data":[0,0,0,0,0,0,0,0,0,0,0,0,0,0,0,0,0,0,0,0,0,0,0,0,0,0,0,0,0,0,0,0,0,0,0,0,0,0,0,0,0,0,0,0,0,0,0,0,0,0,0,0,0,0,0,0,0,0,3.1763,3.1764,0,3.1848,3.1849,3.185,3.1846,3.1844,3.1843,3.1842,3.193,3.1934,3.1937,0,0,0,0,0,0,0,0,0,0,0,0,0,3.1597,3.16,3.1763,3.1764,3.1765,3.1848,3.1849,3.1851,3.1846,3.1844,3.1843,3.1841,3.1929,3.1933,3.1937,0,0,0,0,0,0,0,0,0,0,0,0,0,3.1675,3.1601,3.1763,3.1773,3.1774,3.1848,3.1849,3.1851,3.1846,3.1844,3.1842,3.1841,3.1928,3.1933,3.1938,3.2007,0,0,3.1954,3.1956,0,0,0,0,0,0,0,0,3.167,3.1681,3.177,3.1772,3.1774,3.1834,3.1823,3.1903,3.1847,3.1819,3.1842,3.184,3.19,3.1907,3.1927,3.2011,3.2015,3.1954,3.1958,3.196,3.1961,0,0,0,0,0,0,0,3.1665,3.1677,3.1797,3.1771,3.1774,3.1773,3.1782,3.1838,3.1869,3.1821,3.1821,3.1831,3.1901,3.1922,3.1929,3.2017,3.1954,3.1959,3.1962,3.1964,3.2165,3.2167,0,0,0,0,0,0,3.1657,3.1673,3.1794,3.1799,3.1717,3.1778,3.1788,3.1817,3.1868,3.1874,3.1833,3.1831,3.1914,3.1923,3.1932,3.202,3.196,3.1965,3.1968,3.2163,3.2165,3.2168,0,0,0,0,0,0,3.1654,3.1668,3.1791,3.1736,3.1751,3.1783,3.1815,3.182,3.1841,3.1877,3.1882,3.1849,3.1913,3.1925,3.1989,3.2022,3.1967,3.1972,3.216,3.2163,3.2166,3.2193,0,0,0,0,0,0,3.1649,3.1667,3.1693,3.1737,3.1754,3.1846,3.1817,3.1823,3.185,3.1849,3.1894,3.19,3.1913,3.1982,3.1995,3.2029,3.1976,3.2157,3.2161,3.2165,3.2189,3.2197,3.2203,0,0,0,0,0,3.1643,3.1697,3.1694,3.1709,3.1788,3.1847,3.1858,3.1872,3.1853,3.188,3.1903,3.1898,3.2016,3.1988,3.2003,3.2039,3.2155,3.216,3.2165,3.2186,3.2195,3.2203,0,0,0,0,0,0,3.1656,3.1703,3.1701,3.177,3.1805,3.1847,3.1881,3.188,3.1921,3.1918,3.1933,3.1944,3.2009,3.203,3.1998,3.211,3.2083,3.2091,3.2094,3.2103,3.211,3.2105,3.198,0,0,0,0,0,3.1667,3.1711,3.1749,3.1807,3.1824,3.185,3.1876,3.1884,3.1921,3.1936,3.1963,3.2,3.2045,3.2075,3.2119,3.2191,3.2203,3.2224,3.223,3.2236,3.2243,3.2286,3.2297,3.2184,3.2184,3.2184,0,0,3.169,3.1721,3.1748,3.181,3.1838,3.1885,3.1862,3.1912,3.1947,3.1943,3.2007,3.2028,3.207,3.2139,3.2171,3.2159,3.2277,3.2242,3.2246,3.2251,3.2292,3.2303,3.2313,3.2187,3.2186,3.2186,0,0,3.1757,3.1783,3.1836,3.1864,3.1907,3.1924,3.1936,3.1979,3.1993,3.2056,3.2055,3.2097,3.2174,3.2205,3.2231,3.231,3.2308,3.2324,3.2361,3.2402,3.2411,3.2419,3.245,3.2461,3.2331,3.2331,3.2331,0,3.1781,3.185,3.1863,3.1913,3.1942,3.194,3.1994,3.2021,3.2076,3.2096,3.2081,3.218,3.2208,3.2286,3.2305,3.2325,3.2341,3.232,3.2409,3.2417,3.2425,3.2454,3.2466,3.2333,3.2332,3.2332,3.2332,0,3.1879,3.1927,3.1964,3.2018,3.205,3.2102,3.2123,3.2154,3.2159,3.2177,3.2243,3.2276,3.2328,3.2346,3.2351,3.2426,3.2417,3.2405,3.2379,3.2437,3.2465,3.2477,3.2335,3.2335,3.2334,3.2334,0,0,3.1957,3.2018,3.2031,3.2057,3.2104,3.2142,3.2194,3.2245,3.2272,3.231,3.2356,3.2422,3.2411,3.2441,3.2449,3.2485,3.2549,3.2469,3.247,3.2485,3.2636,3.2647,3.266,3.2547,3.2549,3.255,3.2634,0,3.2031,3.2124,3.2137,3.222,3.2266,3.2265,3.2311,3.2346,3.2364,3.2407,3.2427,3.2475,3.2456,3.2474,3.251,3.2534,3.258,3.2527,3.2591,3.2594,3.2584,3.2674,3.2686,3.2763,3.2645,3.2647,3.2648,0,3.213,3.2171,3.2258,3.2301,3.2321,3.2362,3.2411,3.245,3.249,3.2501,3.2534,3.2538,3.2594,3.2564,3.2641,3.2605,3.2632,3.2648,3.2651,3.266,3.2626,3.2688,3.2787,3.28,3.2665,3.2664,3.2662,0,3.2182,3.2259,3.2322,3.2343,3.2394,3.2424,3.2446,3.2484,3.2514,3.2556,3.2576,3.2624,3.2651,3.2688,3.2705,3.2681,3.2783,3.2754,3.2796,3.2796,3.282,3.2818,3.2927,3.2832,3.2832,3.2831,3.2831,0,3.2265,3.2319,3.2347,3.2386,3.2447,3.2461,3.2522,3.2543,3.2577,3.2621,3.2622,3.2664,3.2683,3.2728,3.2741,3.2805,3.2817,3.2829,3.2832,3.283,3.2829,3.285,3.2846,3.2835,3.2834,3.2833,3.2833,0,3.2335,3.2355,3.2424,3.2467,3.2479,3.2522,3.2559,3.2598,3.2616,3.2672,3.2685,3.2714,3.2767,3.2788,3.2852,3.2861,3.2936,3.2933,3.2923,3.2925,3.2967,3.2964,3.3095,3.3114,3.3004,3.3005,3.3005,0,3.2388,3.243,3.2477,3.2507,3.253,3.2578,3.2609,3.2624,3.2657,3.2706,3.2739,3.2791,3.2835,3.2919,3.2947,3.2996,3.2997,3.3039,3.3005,3.3002,3.3001,3.3,3.3005,3.3047,3.3048,3.3049,3.305,0,3.2481,3.2489,3.2534,3.2582,3.2619,3.2658,3.2696,3.272,3.2742,3.2778,3.2833,3.2866,3.2932,3.2985,3.3036,3.306,3.306,3.306,3.3073,3.3073,3.3067,3.3074,3.2944,3.3058,3.3057,3.3056,3.3056,3.3056,3.2546,3.2584,3.2624,3.2674,3.2704,3.274,3.2779,3.2802,3.2847,3.2903,3.2909,3.2968,3.3008,3.3076,3.3103,3.315,3.3138,3.3156,3.3162,3.3167,3.3171,3.3056,3.3158,3.3158,3.3158,3.3158,3.3158,0,3.2642,3.2668,3.2713,3.2767,3.2807,3.2801,3.2843,3.2877,3.2929,3.2966,3.3008,3.3072,3.3123,3.3155,3.3207,3.3239,3.324,3.3252,3.3252,3.3258,3.3177,3.3162,3.325,3.325,3.325,3.325,3.325,3.325,3.2697,3.2762,3.2775,3.2856,3.2881,3.2939,3.2964,3.2997,3.3027,3.3098,3.3141,3.316,3.3196,3.3251,3.3298,3.3306,3.3327,3.3341,3.3348,3.3272,3.3263,3.3254,3.324,3.3344,3.3344,3.3426,3.3426,3.3427]}]]